Location: ??????
(55.7522°N, 37.6156°E)
Time: 17:03:28
(UTC+00:00)

DELTA 2 DEB (DPAF) - Pass Details

Date: 14 June 2025
Orbit: 536 x 546 km, 98.4° (Epoch: 12 July)

Event Time Altitude Azimuth Distance (km) Brightness Sun altitude
Rises 19:57:44 0° 16° (NNE) 2,712 8.3 -8.5°
Reaches altitude 10° 19:59:52 10° 17° (NNE) 1,813 7.3 -8.6°
Maximum altitude 20:03:47 83° 106° (ESE) 550 3.8 -8.8°
Drops below altitude 10° 20:07:40 10° 195° (SSW) 1,795 5.9 -9.0°
Enters shadow 20:08:07 - 195° (SSW) 1,978 6.2 -9.0°
